Location: Unspecified
(0.0000°N, 0.0000°E)
Time: 23:12:59
(UTC+00:00)

ISS - Pass Details

Date: 16 January 2022
Orbit: 413 x 422 km, 51.6° (Epoch: 27 January)

Event Time Altitude Azimuth Distance (km) Brightness Sun altitude
Exits shadow 05:26:28 14° 284° (WNW) 1,259 -2.0 -10.1°
Maximum altitude 05:28:34 25° 234° (SW) 888 -2.4 -9.6°
Drops below altitude 10° 05:31:25 10° 177° (S) 1,504 -0.6 -8.9°
Sets 05:33:45 0° 163° (SSE) 2,371 0.7 -8.4°
